SCP
0 0 0 0 0 0 0 -0 -0 -0 0 0 0 0 0 0 0 0 0 0 0 0 0 0 0 0 0 0 0 0 0 0
0 0 0 0 0 0 0 0 -0 -0 -0 0 0 0 0 0 0 0 0 0 0 0 0 0 0 0 0 0 0 0 0 0
0 0 0 0 0 -0 -0 0 0 -0 -0 -0 0 0 0 0 0 0 0 0 0 0 0 0 0 0 0 0 0 0 0 0
0 0 0 0 0 0 0 0 0 0 0 -0 -0 -0 0 0 0 0 0 0 0 0 0 0 0 0 0 0 0 0 0 0
0 0 0 0 0 0 0 0 0 0 0 0 0 -0 -0 -0 0 0 0 0 0 0 0 0 0 0 0 0 0 0 0 0
0 0 0 0 0 0 0 0 0 0 0 0 0 0 0 -0 -0 -0 0 0 0 0 0 0 0 0 0 0 0 0 0 0
0 0 0 0 0 0 0 0 0 0 0 0 0 0 0 0 0 -0 -0 -0 0 0 0 0 0 0 0 0 0 0 0 0
0 0 0 0 0 0 0 0 -0 -0 -0 -0 -0 -0 -0 -0 0 -0 -0 -0 -0 0 0 0 0 0 0 0 0 0 0 0
0 0 0 0 0 0 0 0 0 0 0 0 -0 -0 -0 -0 0 0 0 0 0 0 0 0 0 -0 -0 -0 -0 0 0 0
0 0 0 0 0 0 0 0 0 0 0 0 0 0 0 0 -0 -0 0 -0 -0 0 0 0 0 0 -0 0 0 0 0 0
0 0 0 0 0 0 0 0 0 0 0 0 0 0 0 0 0 0 0 0 0 0 0 0 0 0 0 0 0 0 0 -0
0 0 0 0 0 0 0 0 0 0 0 0 0 0 0 0 0 -0 0 0 0 0 -0 -0 -0 -0 -0 -0 -0 -0 -0 -0
0 0 0 0 0 0 0 0 0 0 0 0 0 0 0 0 0 0 -0 -0 0 0 0 0 0 0 -0 -0 -0 0 0 -0
0 0 0 0 0 0 0 0 0 0 0 0 0 0 0 0 0 0 0 -0 -0 -0 -0 -0 0 0 0 -0 -0 -0 0 0
0 0 0 0 0 0 0 0 0 0 0 0 0 0 0 0 0 0 0 0 0 -0 -0 -0 -0 -0 0 0 0 0 0 0
0 0 0 0 0 0 0 0 0 0 0 0 0 0 0 0 0 0 0 0 0 0 0 -0 -0 -0 -0 0 0 0 0 0
0 0 0 0 0 0 0 0 0 0 0 0 0 0 0 0 0 0 0 0 0 0 0 0 0 0 0 0 0 0 0 0
0 0 0 0 0 0 0 0 0 0 0 0 0 0 0 0 0 0 0 0 0 0 0 0 0 0 0 0 0 0 0 0
0 0 0 0 0 0 0 0 0 0 0 0 0 0 0 0 0 0 0 0 0 0 0 0 0 0 0 0 0 0 0 0
0 0 0 0 0 0 0 0 0 0 0 0 0 0 0 0 0 0 0 0 0 0 0 0 0 0 0 0 0 0 0 0
Wind_Speed_500mb
16 19 24 25 28 27 25 23 20 18 15 13 11 9 7 10 15 18 24 29 25 24 21 21 20 24 25 28 25 19 18 17
14 12 15 20 22 25 23 22 18 17 16 15 15 11 8 8 12 18 23 28 32 30 26 24 30 22 29 27 29 30 32 31
10 9 12 15 20 21 21 19 19 15 20 19 18 16 10 6 7 14 22 25 27 30 29 26 25 24 24 29 29 25 22 24
11 10 11 14 18 20 18 18 14 15 18 17 15 14 11 8 3 2 12 24 28 30 32 28 24 23 24 21 25 22 20 20
8 8 10 12 14 17 17 15 10 12 15 15 14 17 17 13 9 8 11 20 22 22 24 26 26 25 23 18 20 20 19 18
4 6 7 11 14 14 12 7 5 10 14 17 19 19 16 17 15 14 15 20 25 26 28 26 24 22 19 22 20 18 16 13
1 4 7 9 13 13 11 5 9 11 13 16 17 15 14 16 18 16 14 17 23 22 21 19 19 17 15 12 8 15 13 15
4 1 1 3 8 14 13 10 16 11 11 10 9 11 14 14 14 15 14 16 16 20 16 14 13 13 17 21 20 18 16 17
9 6 4 5 7 13 16 13 4 6 8 6 6 6 9 11 11 11 12 13 13 13 13 12 15 19 19 19 20 14 10 15
18 11 7 6 7 10 13 11 8 4 2 3 3 8 11 10 9 6 7 8 10 11 15 15 17 17 17 18 16 12 17 19
21 16 13 11 10 10 11 12 9 7 3 1 1 1 10 13 9 6 4 7 8 8 9 11 11 12 15 14 16 18 17 14
19 18 16 14 13 11 10 10 9 9 7 5 3 4 4 7 12 16 20 17 18 16 12 12 13 16 15 16 14 14 13 13
18 18 16 16 15 14 13 11 11 10 10 9 8 8 8 10 12 12 19 25 24 22 21 20 18 18 17 17 16 19 19 20
20 20 19 18 18 18 18 15 15 14 13 12 12 12 12 12 13 17 20 23 25 25 26 25 24 24 25 24 23 22 23 24
27 27 25 24 23 19 25 22 20 18 18 19 18 17 17 18 18 19 21 24 24 23 24 27 28 27 28 27 27 27 27 28
31 30 28 28 28 28 31 32 29 27 27 26 25 25 25 23 24 25 26 27 28 30 31 31 28 26 28 29 29 30 31 33
35 34 33 35 34 35 37 39 38 39 39 35 32 31 31 31 32 30 29 33 33 34 33 33 34 37 38 37 37 38 39 37
35 33 32 36 39 40 41 41 44 46 46 46 46 45 41 39 38 36 36 38 38 38 37 37 38 40 40 41 42 44 46 47
37 42 40 40 39 36 40 45 45 46 49 52 55 55 52 49 47 44 44 46 46 41 40 43 43 44 45 46 50 53 55 54
49 53 50 46 39 37 43 51 56 55 54 53 56 59 59 57 56 57 56 54 54 52 55 52 49 49 52 56 62 62 62 61
Wind_Direction_500mb
335 324 327 336 339 343 348 355 351 351 353 3 6 350 321 273 257 229 217 222 222 216 211 205 209 195 216 207 211 223 244 239
321 321 325 333 341 342 347 351 350 352 0 11 9 11 357 315 265 244 232 216 212 212 213 220 219 210 210 218 216 222 229 234
347 336 335 341 341 345 342 354 355 360 3 8 17 19 7 337 301 250 222 221 212 207 198 198 199 188 196 211 217 221 224 227
356 353 353 353 352 346 347 355 14 17 10 18 20 23 17 3 322 262 206 188 192 196 195 193 191 211 211 209 213 211 217 205
358 354 1 358 0 358 355 359 28 21 25 16 29 34 38 38 46 91 136 158 165 170 179 183 189 192 190 196 200 203 205 204
11 345 355 6 6 11 17 22 71 47 32 31 38 42 45 57 66 90 121 142 149 153 170 174 202 188 179 188 195 199 190 178
69 353 345 7 18 24 30 75 124 103 78 56 47 53 58 67 77 96 119 134 143 152 156 152 157 159 184 185 201 181 197 209
201 198 58 31 40 51 70 128 146 136 111 77 66 56 58 72 94 108 115 116 127 140 146 158 150 174 187 177 177 190 195 189
215 201 160 125 86 95 110 128 150 149 138 112 109 113 78 76 94 104 123 137 141 148 147 160 156 174 182 193 192 185 217 220
203 187 173 147 130 131 145 152 162 174 347 11 120 144 157 135 99 110 133 126 156 169 187 183 184 195 217 215 202 209 227 223
189 185 176 173 168 166 170 181 186 186 186 333 354 160 162 172 173 179 161 162 155 162 201 204 202 215 221 215 212 222 215 211
188 188 188 184 188 187 199 200 205 222 226 224 207 210 215 192 180 177 185 192 195 188 195 206 225 224 227 212 202 209 226 218
196 202 201 203 203 205 211 221 226 234 244 253 254 232 214 214 215 206 199 197 201 209 222 224 231 229 223 220 221 211 205 209
209 214 215 216 218 215 216 224 236 240 246 250 257 257 251 242 232 228 219 222 222 221 218 220 219 217 217 220 221 218 209 209
229 230 230 227 228 222 229 231 233 238 249 255 257 253 253 256 247 240 236 237 237 240 235 229 228 225 220 218 218 217 218 218
238 241 239 239 241 234 237 246 246 241 241 246 249 252 253 247 248 248 245 243 240 235 236 236 233 230 229 228 222 222 222 223
245 245 246 243 249 248 244 249 253 253 251 251 254 254 253 252 255 255 252 254 249 246 247 247 239 231 228 225 229 231 231 231
253 252 245 247 246 247 252 253 256 259 258 257 255 253 253 253 254 256 256 255 254 254 250 245 244 246 247 245 243 242 241 239
248 248 247 242 246 250 257 262 261 261 260 256 254 253 252 253 257 256 255 258 260 257 257 258 255 250 247 247 249 249 251 251
247 249 249 255 254 251 257 265 267 263 260 259 259 257 255 252 250 251 252 253 257 255 252 250 249 248 252 254 254 255 254 254
Wind_Speed_850mb
16 19 24 25 28 27 25 23 20 18 15 13 11 9 7 10 15 18 24 29 25 24 21 21 20 24 25 28 25 19 18 17
14 12 15 20 22 25 23 22 18 17 16 15 15 11 8 8 12 18 23 28 32 30 26 24 30 22 29 27 29 30 32 31
10 9 12 15 20 21 21 19 19 15 20 19 18 16 10 6 7 14 22 25 27 30 29 26 25 24 24 29 29 25 22 24
11 10 11 14 18 20 18 18 14 15 18 17 15 14 11 8 3 2 12 24 28 30 32 28 24 23 24 21 25 22 20 20
8 8 10 12 14 17 17 15 10 12 15 15 14 17 17 13 9 8 11 20 22 22 24 26 26 25 23 18 20 20 19 18
4 6 7 11 14 14 12 7 5 10 14 17 19 19 16 17 15 14 15 20 25 26 28 26 24 22 19 22 20 18 16 13
1 4 7 9 13 13 11 5 9 11 13 16 17 15 14 16 18 16 14 17 23 22 21 19 19 17 15 12 8 15 13 15
4 1 1 3 8 14 13 10 16 11 11 10 9 11 14 14 14 15 14 16 16 20 16 14 13 13 17 21 20 18 16 17
9 6 4 5 7 13 16 13 4 6 8 6 6 6 9 11 11 11 12 13 13 13 13 12 15 19 19 19 20 14 10 15
18 11 7 6 7 10 13 11 8 4 2 3 3 8 11 10 9 6 7 8 10 11 15 15 17 17 17 18 16 12 17 19
21 16 13 11 10 10 11 12 9 7 3 1 1 1 10 13 9 6 4 7 8 8 9 11 11 12 15 14 16 18 17 14
19 18 16 14 13 11 10 10 9 9 7 5 3 4 4 7 12 16 20 17 18 16 12 12 13 16 15 16 14 14 13 13
18 18 16 16 15 14 13 11 11 10 10 9 8 8 8 10 12 12 19 25 24 22 21 20 18 18 17 17 16 19 19 20
20 20 19 18 18 18 18 15 15 14 13 12 12 12 12 12 13 17 20 23 25 25 26 25 24 24 25 24 23 22 23 24
27 27 25 24 23 19 25 22 20 18 18 19 18 17 17 18 18 19 21 24 24 23 24 27 28 27 28 27 27 27 27 28
31 30 28 28 28 28 31 32 29 27 27 26 25 25 25 23 24 25 26 27 28 30 31 31 28 26 28 29 29 30 31 33
35 34 33 35 34 35 37 39 38 39 39 35 32 31 31 31 32 30 29 33 33 34 33 33 34 37 38 37 37 38 39 37
35 33 32 36 39 40 41 41 44 46 46 46 46 45 41 39 38 36 36 38 38 38 37 37 38 40 40 41 42 44 46 47
37 42 40 40 39 36 40 45 45 46 49 52 55 55 52 49 47 44 44 46 46 41 40 43 43 44 45 46 50 53 55 54
49 53 50 46 39 37 43 51 56 55 54 53 56 59 59 57 56 57 56 54 54 52 55 52 49 49 52 56 62 62 62 61
Wind_Direction_850mb
335 324 327 336 339 343 348 355 351 351 353 3 6 350 321 273 257 229 217 222 222 216 211 205 209 195 216 207 211 223 244 239
321 321 325 333 341 342 347 351 350 352 0 11 9 11 357 315 265 244 232 216 212 212 213 220 219 210 210 218 216 222 229 234
347 336 335 341 341 345 342 354 355 360 3 8 17 19 7 337 301 250 222 221 212 207 198 198 199 188 196 211 217 221 224 227
356 353 353 353 352 346 347 355 14 17 10 18 20 23 17 3 322 262 206 188 192 196 195 193 191 211 211 209 213 211 217 205
358 354 1 358 0 358 355 359 28 21 25 16 29 34 38 38 46 91 136 158 165 170 179 183 189 192 190 196 200 203 205 204
11 345 355 6 6 11 17 22 71 47 32 31 38 42 45 57 66 90 121 142 149 153 170 174 202 188 179 188 195 199 190 178
69 353 345 7 18 24 30 75 124 103 78 56 47 53 58 67 77 96 119 134 143 152 156 152 157 159 184 185 201 181 197 209
201 198 58 31 40 51 70 128 146 136 111 77 66 56 58 72 94 108 115 116 127 140 146 158 150 174 187 177 177 190 195 189
215 201 160 125 86 95 110 128 150 149 138 112 109 113 78 76 94 104 123 137 141 148 147 160 156 174 182 193 192 185 217 220
203 187 173 147 130 131 145 152 162 174 347 11 120 144 157 135 99 110 133 126 156 169 187 183 184 195 217 215 202 209 227 223
189 185 176 173 168 166 170 181 186 186 186 333 354 160 162 172 173 179 161 162 155 162 201 204 202 215 221 215 212 222 215 211
188 188 188 184 188 187 199 200 205 222 226 224 207 210 215 192 180 177 185 192 195 188 195 206 225 224 227 212 202 209 226 218
196 202 201 203 203 205 211 221 226 234 244 253 254 232 214 214 215 206 199 197 201 209 222 224 231 229 223 220 221 211 205 209
209 214 215 216 218 215 216 224 236 240 246 250 257 257 251 242 232 228 219 222 222 221 218 220 219 217 217 220 221 218 209 209
229 230 230 227 228 222 229 231 233 238 249 255 257 253 253 256 247 240 236 237 237 240 235 229 228 225 220 218 218 217 218 218
238 241 239 239 241 234 237 246 246 241 241 246 249 252 253 247 248 248 245 243 240 235 236 236 233 230 229 228 222 222 222 223
245 245 246 243 249 248 244 249 253 253 251 251 254 254 253 252 255 255 252 254 249 246 247 247 239 231 228 225 229 231 231 231
253 252 245 247 246 247 252 253 256 259 258 257 255 253 253 253 254 256 256 255 254 254 250 245 244 246 247 245 243 242 241 239
248 248 247 242 246 250 257 262 261 261 260 256 254 253 252 253 257 256 255 258 260 257 257 258 255 250 247 247 249 249 251 251
247 249 249 255 254 251 257 265 267 263 260 259 259 257 255 252 250 251 252 253 257 255 252 250 249 248 252 254 254 255 254 254